| time (UTC) | temp C | wind direction | speed KPH | gust KPH | rain 1hr cm | rain 24hr cm | rain mn cm | humidity % | barometer mb |
| 20260507050635 | 5 | 319 | 4.8 | 6.4 | 0.00 | 0.00 | 0.00 | 99 | 1011.5 |
| 20260507045634 | 5 | 43 | 3.2 | 3.2 | 0.00 | 0.00 | 0.00 | 99 | 1011.2 |
| 20260507044634 | 5 | 40 | 3.2 | 6.4 | 0.00 | 0.00 | 0.00 | 99 | 1011.3 |
| 20260507043633 | 5 | 67 | 3.2 | 4.8 | 0.00 | 0.00 | 0.00 | 99 | 1011.4 |
| 20260507042632 | 5 | 52 | 0.0 | 4.8 | 0.00 | 0.00 | 0.00 | 99 | 1011.4 |
| 20260507041630 | 5 | 63 | 1.6 | 4.8 | 0.00 | 0.00 | 0.00 | 99 | 1011.2 |
| 20260507040630 | 5 | 69 | 3.2 | 4.8 | 0.00 | 0.00 | 0.00 | 99 | 1011.6 |
| 20260507035628 | 5 | 104 | 0.0 | 3.2 | 0.00 | 0.99 | 0.99 | 99 | 1011.2 |
| 20260507034626 | 5 | 78 | 1.6 | 4.8 | 0.00 | 0.99 | 0.99 | 99 | 1011.4 |
| 20260507033622 | 5 | 84 | 3.2 | 4.8 | 0.00 | 0.99 | 0.99 | 99 | 1011.2 |
| 20260507032622 | 5 | 67 | 1.6 | 6.4 | 0.00 | 0.99 | 0.99 | 99 | 1011.4 |
| 20260507031621 | 5 | 50 | 1.6 | 4.8 | 0.00 | 0.99 | 0.99 | 99 | 1011.2 |
| 20260507030620 | 5 | 56 | 3.2 | 3.2 | 0.00 | 0.99 | 0.99 | 99 | 1011.2 |
| 20260507025615 | 5 | 88 | 1.6 | 3.2 | 0.00 | 0.99 | 0.99 | 99 | 1011.1 |
| 20260507024610 | 5 | 121 | 0.0 | 3.2 | 0.00 | 0.99 | 0.99 | 99 | 1011.5 |
| 20260507023608 | 5 | 48 | 1.6 | 3.2 | 0.00 | 0.99 | 0.99 | 99 | 1011.4 |
| 20260507022603 | 6 | 74 | 1.6 | 3.2 | 0.00 | 0.99 | 0.99 | 99 | 1011.6 |
| 20260507021600 | 6 | 64 | 0.0 | 3.2 | 0.00 | 0.99 | 0.99 | 99 | 1011.5 |
| 20260507020555 | 5 | 113 | 0.0 | 3.2 | 0.00 | 0.99 | 0.99 | 99 | 1011.9 |
| 20260507015555 | 6 | 9 | 3.2 | 4.8 | 0.00 | 0.99 | 0.99 | 99 | 1011.9 |
| 20260507014555 | 6 | 65 | 0.0 | 4.8 | 0.00 | 0.99 | 0.99 | 99 | 1011.8 |
| 20260507013553 | 6 | 215 | 0.0 | 3.2 | 0.00 | 0.99 | 0.99 | 99 | 1012.0 |
| 20260507012548 | 6 | 70 | 0.0 | 1.6 | 0.00 | 0.99 | 0.99 | 99 | 1012.1 |
| 20260507011547 | 6 | 54 | 1.6 | 4.8 | 0.00 | 0.99 | 0.99 | 99 | 1011.9 |
| 20260507010543 | 6 | 30 | 3.2 | 4.8 | 0.00 | 0.99 | 0.99 | 99 | 1011.7 |
| 20260507005538 | 6 | 35 | 3.2 | 4.8 | 0.00 | 0.99 | 0.99 | 99 | 1011.6 |
| 20260507004537 | 6 | 338 | 1.6 | 4.8 | 0.00 | 0.99 | 0.99 | 99 | 1011.7 |
| 20260507003536 | 6 | 1 | 3.2 | 6.4 | 0.00 | 0.99 | 0.99 | 99 | 1011.3 |
| 20260507002534 | 6 | 38 | 3.2 | 6.4 | 0.00 | 0.99 | 0.99 | 99 | 1011.3 |
| 20260507001532 | 6 | 21 | 3.2 | 4.8 | 0.00 | 0.99 | 0.99 | 99 | 1011.2 |
| 20260507000532 | 6 | 12 | 3.2 | 8.0 | 0.00 | 0.99 | 0.99 | 99 | 1011.0 |
| 20260506235531 | 6 | 4 | 9.7 | 9.7 | 0.00 | 0.99 | 0.99 | 99 | 1010.9 |
| 20260506234530 | 6 | 29 | 6.4 | 6.4 | 0.00 | 0.99 | 0.99 | 99 | 1010.7 |
| 20260506233530 | 6 | 15 | 3.2 | 9.7 | 0.00 | 0.99 | 0.99 | 99 | 1010.7 |
| 20260506232528 | 6 | 345 | 8.0 | 8.0 | 0.00 | 0.99 | 0.99 | 99 | 1010.8 |
| 20260506231528 | 6 | 340 | 4.8 | 6.4 | 0.00 | 0.99 | 0.99 | 99 | 1010.6 |
| 20260506230527 | 6 | 4 | 3.2 | 8.0 | 0.00 | 0.99 | 0.99 | 99 | 1010.5 |
| 20260506225527 | 6 | 10 | 3.2 | 6.4 | 0.00 | 0.99 | 0.99 | 99 | 1010.7 |
| 20260506224525 | 6 | 334 | 6.4 | 6.4 | 0.00 | 0.99 | 0.99 | 99 | 1010.5 |
| 20260506223523 | 6 | 324 | 3.2 | 9.7 | 0.00 | 0.99 | 0.99 | 99 | 1010.5 |
| 20260506222522 | 6 | 8 | 6.4 | 8.0 | 0.00 | 0.99 | 0.99 | 99 | 1010.4 |
| 20260506221521 | 6 | 351 | 4.8 | 9.7 | 0.00 | 0.99 | 0.99 | 99 | 1010.3 |
| 20260506220519 | 6 | 7 | 6.4 | 14.5 | 0.00 | 0.99 | 0.99 | 99 | 1010.0 |
| 20260506215518 | 6 | 345 | 8.0 | 11.3 | 0.00 | 0.99 | 0.99 | 99 | 1009.6 |
| 20260506214517 | 6 | 322 | 6.4 | 12.9 | 0.00 | 0.99 | 0.99 | 99 | 1009.6 |
| 20260506213512 | 7 | 29 | 6.4 | 8.0 | 0.05 | 0.99 | 0.99 | 99 | 1009.4 |
| 20260506212511 | 6 | 345 | 9.7 | 14.5 | 0.00 | 0.99 | 0.99 | 99 | 1009.1 |
| 20260506211508 | 7 | 10 | 3.2 | 8.0 | 0.13 | 0.99 | 0.99 | 99 | 1009.2 |
| 20260506210508 | 7 | 351 | 4.8 | 8.0 | 0.05 | 0.97 | 0.97 | 99 | 1009.1 |
| 20260506205507 | 7 | 6 | 8.0 | 14.5 | 0.00 | 0.94 | 0.94 | 99 | 1008.8 |
| 20260506204507 | 7 | 342 | 8.0 | 9.7 | 0.00 | 0.94 | 0.94 | 99 | 1008.8 |
| 20260506203502 | 7 | 19 | 6.4 | 12.9 | 0.05 | 0.94 | 0.94 | 99 | 1008.6 |
| 20260506202501 | 7 | 20 | 6.4 | 9.7 | 0.05 | 0.94 | 0.94 | 99 | 1008.3 |
| 20260506201501 | 7 | 349 | 6.4 | 9.7 | 0.13 | 0.94 | 0.94 | 99 | 1008.0 |
| 20260506200500 | 7 | 11 | 6.4 | 9.7 | 0.05 | 0.91 | 0.91 | 99 | 1007.9 |
| 20260506195500 | 8 | 13 | 6.4 | 9.7 | 0.13 | 0.89 | 0.89 | 99 | 1007.8 |
| 20260506194459 | 8 | 4 | 6.4 | 12.9 | 0.13 | 0.89 | 0.89 | 99 | 1007.8 |
| 20260506193459 | 8 | 2 | 4.8 | 14.5 | 0.23 | 0.84 | 0.84 | 99 | 1007.5 |
| 20260506192459 | 8 | 354 | 6.4 | 12.9 | 0.05 | 0.81 | 0.81 | 99 | 1007.4 |
| 20260506191458 | 9 | 5 | 6.4 | 17.7 | 0.00 | 0.79 | 0.79 | 99 | 1007.3 |
| 20260506190457 | 13 | 193 | 4.8 | 8.0 | 0.00 | 0.79 | 0.79 | 99 | 1007.3 |
| 20260506185457 | 13 | 209 | 4.8 | 14.5 | 0.00 | 0.79 | 0.79 | 99 | 1006.9 |
| 20260506184457 | 13 | 220 | 3.2 | 17.7 | 0.00 | 0.79 | 0.79 | 99 | 1007.1 |
| 20260506183455 | 13 | 221 | 6.4 | 22.5 | 0.00 | 0.79 | 0.79 | 99 | 1007.0 |
| 20260506182455 | 13 | 200 | 6.4 | 12.9 | 0.00 | 0.79 | 0.79 | 99 | 1007.1 |
| 20260506181451 | 13 | 233 | 20.9 | 22.5 | 0.00 | 0.79 | 0.79 | 99 | 1006.7 |
| 20260506180449 | 13 | 217 | 8.0 | 12.9 | 0.00 | 0.79 | 0.79 | 99 | 1007.2 |
| 20260506175449 | 13 | 196 | 4.8 | 11.3 | 0.00 | 0.79 | 0.79 | 99 | 1007.0 |
| 20260506174449 | 13 | 212 | 11.3 | 14.5 | 0.00 | 0.79 | 0.79 | 99 | 1006.9 |
| 20260506173449 | 13 | 211 | 16.1 | 19.3 | 0.00 | 0.79 | 0.79 | 99 | 1006.8 |
| 20260506172449 | 13 | 236 | 14.5 | 24.1 | 0.00 | 0.79 | 0.79 | 99 | 1007.0 |
| 20260506171449 | 13 | 220 | 9.7 | 24.1 | 0.00 | 0.79 | 0.79 | 99 | 1007.0 |
| 20260506170449 | 13 | 201 | 4.8 | 11.3 | 0.00 | 0.79 | 0.79 | 99 | 1007.0 |
| 20260506165446 | 12 | 209 | 17.7 | 19.3 | 0.00 | 0.79 | 0.79 | 99 | 1007.0 |
| 20260506164444 | 12 | 206 | 8.0 | 14.5 | 0.00 | 0.79 | 0.79 | 99 | 1006.9 |
| 20260506163443 | 12 | 225 | 11.3 | 17.7 | 0.05 | 0.79 | 0.79 | 99 | 1007.1 |
| 20260506162441 | 12 | 182 | 6.4 | 14.5 | 0.05 | 0.79 | 0.79 | 99 | 1006.9 |
| 20260506161437 | 12 | 188 | 3.2 | 11.3 | 0.23 | 0.76 | 0.76 | 99 | 1007.2 |
| 20260506160437 | 12 | 137 | 8.0 | 14.5 | 0.00 | 0.71 | 0.71 | 99 | 1007.2 |
| 20260506155433 | 12 | 232 | 14.5 | 17.7 | 0.00 | 0.71 | 0.71 | 99 | 1007.2 |
| 20260506153559 | 12 | 207 | 4.8 | 14.5 | 0.00 | 0.71 | 0.71 | 99 | 1007.1 |
| 20260506152559 | 12 | 171 | 9.7 | 12.9 | 0.05 | 0.71 | 0.71 | 99 | 1007.1 |
| 20260506151555 | 12 | 216 | 9.7 | 14.5 | 0.13 | 0.71 | 0.71 | 99 | 1007.3 |
| 20260506150554 | 12 | 219 | 11.3 | 12.9 | 0.18 | 0.69 | 0.69 | 99 | 1007.2 |
| 20260506145553 | 12 | 219 | 9.7 | 14.5 | 0.13 | 0.66 | 0.66 | 99 | 1007.1 |
| 20260506144553 | 12 | 220 | 14.5 | 19.3 | 0.13 | 0.64 | 0.64 | 99 | 1007.0 |
| 20260506143548 | 12 | 196 | 6.4 | 19.3 | 0.05 | 0.61 | 0.61 | 99 | 1007.0 |
| 20260506142544 | 12 | 180 | 4.8 | 22.5 | 0.23 | 0.61 | 0.61 | 99 | 1007.0 |
| 20260506141539 | 12 | 153 | 14.5 | 22.5 | 0.00 | 0.56 | 0.56 | 99 | 1007.1 |
| 20260506140534 | 12 | 195 | 8.0 | 14.5 | 0.05 | 0.56 | 0.56 | 99 | 1007.1 |
| 20260506135534 | 12 | 201 | 14.5 | 29.0 | 0.00 | 0.56 | 0.56 | 98 | 1007.2 |
| 20260506134533 | 12 | 196 | 12.9 | 20.9 | 0.00 | 0.56 | 0.56 | 98 | 1007.1 |
| 20260506133532 | 12 | 208 | 6.4 | 16.1 | 0.00 | 0.56 | 0.56 | 98 | 1006.9 |
| 20260506132532 | 12 | 186 | 8.0 | 14.5 | 0.13 | 0.56 | 0.56 | 99 | 1007.3 |
| 20260506131532 | 12 | 130 | 8.0 | 8.0 | 0.23 | 0.53 | 0.53 | 99 | 1006.9 |
| 20260506130531 | 12 | 184 | 6.4 | 11.3 | 0.30 | 0.51 | 0.51 | 99 | 1007.6 |
| 20260506125527 | 12 | 207 | 4.8 | 11.3 | 0.18 | 0.46 | 0.46 | 99 | 1007.8 |
| 20260506124522 | 12 | 138 | 8.0 | 16.1 | 0.30 | 0.41 | 0.41 | 98 | 1008.0 |
| 20260506123517 | 12 | 217 | 12.9 | 14.5 | 0.18 | 0.36 | 0.36 | 98 | 1008.0 |
| 20260506122517 | 11 | 165 | 3.2 | 8.0 | 0.13 | 0.33 | 0.33 | 99 | 1008.0 |
| 20260506121513 | 11 | 199 | 6.4 | 9.7 | 0.18 | 0.30 | 0.30 | 99 | 1007.8 |
| 20260506120513 | 11 | 218 | 6.4 | 8.0 | 0.13 | 0.28 | 0.28 | 99 | 1007.7 |
| 20260506115508 | 11 | 153 | 3.2 | 6.4 | 0.05 | 0.25 | 0.25 | 99 | 1007.7 |
| 20260506114503 | 11 | 142 | 3.2 | 4.8 | 0.05 | 0.25 | 0.25 | 99 | 1007.7 |
| 20260506113459 | 11 | 173 | 3.2 | 6.4 | 0.13 | 0.23 | 0.23 | 99 | 1007.9 |
| 20260506112459 | 11 | 186 | 3.2 | 6.4 | 0.05 | 0.23 | 0.23 | 99 | 1007.9 |
| 20260506111454 | 11 | 210 | 3.2 | 6.4 | 0.13 | 0.20 | 0.20 | 98 | 1007.8 |
| 20260506110454 | 11 | 189 | 3.2 | 6.4 | 0.13 | 0.18 | 0.18 | 98 | 1008.1 |
| 20260506105453 | 11 | 201 | 3.2 | 6.4 | 0.13 | 0.18 | 0.18 | 97 | 1007.8 |
| 20260506104448 | 11 | 256 | 1.6 | 3.2 | 0.13 | 0.15 | 0.15 | 97 | 1008.0 |
| 20260506103443 | 11 | 106 | 3.2 | 4.8 | 0.00 | 0.13 | 0.13 | 97 | 1007.8 |
| 20260506102438 | 11 | 69 | 3.2 | 4.8 | 0.05 | 0.13 | 0.13 | 96 | 1007.9 |
| 20260506101437 | 11 | 356 | 4.8 | 4.8 | 0.00 | 0.13 | 0.13 | 95 | 1007.8 |
| 20260506100433 | 11 | 164 | 4.8 | 8.0 | 0.13 | 0.10 | 0.10 | 95 | 1007.7 |
| 20260506095429 | 12 | 143 | 3.2 | 6.4 | 0.05 | 0.10 | 0.10 | 92 | 1007.6 |
| 20260506094429 | 12 | 110 | 1.6 | 8.0 | 0.05 | 0.08 | 0.08 | 90 | 1007.5 |
| 20260506093424 | 12 | 139 | 4.8 | 6.4 | 0.05 | 0.08 | 0.08 | 90 | 1007.5 |
| 20260506092420 | 12 | 195 | 3.2 | 9.7 | 0.05 | 0.05 | 0.05 | 87 | 1007.5 |
| 20260506091420 | 12 | 204 | 4.8 | 9.7 | 0.05 | 0.05 | 0.05 | 87 | 1007.9 |
| 20260506090415 | 12 | 131 | 1.6 | 4.8 | 0.00 | 0.05 | 0.05 | 89 | 1007.6 |
| 20260506085414 | 12 | 185 | 0.0 | 3.2 | 0.05 | 0.05 | 0.05 | 89 | 1007.9 |
| 20260506084413 | 13 | 185 | 3.2 | 6.4 | 0.13 | 0.03 | 0.03 | 82 | 1007.8 |
| 20260506083413 | 13 | 173 | 6.4 | 8.0 | 0.00 | 0.00 | 0.00 | 76 | 1008.1 |
| 20260506082413 | 14 | 189 | 4.8 | 9.7 | 0.00 | 0.00 | 0.00 | 75 | 1008.1 |
| 20260506081413 | 15 | 150 | 4.8 | 9.7 | 0.05 | 0.00 | 0.00 | 74 | 1008.1 |
| 20260506080412 | 15 | 175 | 0.0 | 12.9 | 0.00 | 0.00 | 0.00 | 70 | 1008.4 |
| 20260506073402 | 16 | 185 | 8.0 | 16.1 | 0.00 | 0.00 | 0.00 | 59 | 1007.6 |
| 20260506072402 | 16 | 204 | 6.4 | 8.0 | 0.00 | 0.00 | 0.00 | 59 | 1007.3 |
| 20260506071358 | 16 | 215 | 11.3 | 12.9 | 0.00 | 0.00 | 0.00 | 60 | 1007.6 |
| 20260506070357 | 15 | 171 | 4.8 | 11.3 | 0.00 | 0.00 | 0.00 | 68 | 1007.9 |
| 20260506062340 | 12 | 109 | 0.0 | 3.2 | 0.00 | 0.00 | 0.00 | 96 | 1007.9 |
| 20260506061339 | 12 | 113 | 0.0 | 4.8 | 0.00 | 0.00 | 0.00 | 96 | 1008.6 |
| 20260506060335 | 12 | 105 | 0.0 | 4.8 | 0.00 | 0.00 | 0.00 | 96 | 1008.6 |
| 20260506051324 | 13 | 66 | 4.8 | 6.4 | 0.00 | 0.00 | 0.00 | 94 | 1009.2 |